Regional Weather Roundup
Issued by NWS

Home | Current Version | Previous Version | Text Only | Print | Product List | Glossary On
Versions: 1 2 3 4 5 6 7 8 9 10 11 12 13 14 15 16 17 18 19 20 21 22 23 24 25 26 27
000
ASUS42 KKEY 231910
RWRKEY

FLORIDA REGIONAL WEATHER ROUNDUP FOR THE FLORIDA KEYS
NATIONAL WEATHER SERVICE KEY WEST FLORIDA
200 PM EST THU FEB 23 2017

...SOUTH FLORIDA AND THE KEYS...

CITY           SKY/WX    TMP DP  RH WIND       PRES   REMARKS
FORT MYERS     CLOUDY    71  63  75 W14       29.64S
SW REGIONAL AP CLOUDY    71  59  65 W8        29.64F
NAPLES         PTSUNNY   73  61  65 W13       29.65F
MIAMI          MOSUNNY   79  54  41 SW14G20   29.62F
WEST KENDALL   MOSUNNY   77  57  50 W14       29.62F
HOMESTEAD      MOSUNNY   75  64  68 W13       29.62F
MARATHON       SUNNY     78  65  63 W12G20    29.66F
BOCA CHICA NAS MOSUNNY   75  63  66 W16G28    29.67F
KEY WEST INTL  MOSUNNY   76  64  66 W14       29.68F

...INTERNATIONAL WEATHER...

CITY           SKY/WX    TMP DP  RH WIND       PRES   REMARKS
NASSAU BAHAMAS MOSUNNY   82  55  39 W5        29.68F
CANCUN MEXICO  MOSUNNY   82  57  42 W9        29.77F
COZUMEL MEXICO MOSUNNY   82  57  42 W3        29.77F

ADJACENT COASTAL WATERS...

STATION/POSITION TIME  SKY/WX   TEMP    WIND        PRES    WAVE
                                AIR SEA DIR/SP/G            HT/PER
                 (UTC)          (F)     (DEG/KT/KT) (MB)    (FT/S)
PULASKI SHOAL LI 1900            72     320/ 15/ 16 1005.1F
SAND KEY         1850            72     300/ 16/ 18 1005.5F
LONG KEY         1800            72 73  290/ 12/ 13 1005.1F
MOLASSES REEF    1900            72 75  270/ 16/ 17 1004.1
FOWEY ROCKS      1900            72 74  200/ 16/ 17 1003.8F
Buoy 42097       1830                                 N/A     6/ 8

$$




USA.gov is the U.S. government's official web portal to all federal, state and local government web resources and services.